User: anonymous   Login
Location: Arbon
(43.0005°N, 0.7472°E)
Time: 18:22:47
(UTC+00:00)
Language:

Cosmos 990 Rocket - Orbit

View from above orbital plane
View from above orbital plane
View from above satellite
View from above satellite

Ground track
Ground track

The orbit data is extracted from the following two-line orbital elements,

1 10677U 78019B   20295.46165484  .00000054  00000-0  25589-4 0  9994
2 10677  74.0394 202.9552 0015790 332.2535  27.7776 14.40158015238446
Epoch (UTC): 21 October 2020 11:04:46
Eccentricity: 0.0015790
inclination: 74.0394°
perigee height: 747 km
apogee height: 769 km
right ascension of ascending node: 202.9552°
argument of perigee: 332.2535°
revolutions per day: 14.40158015
mean anomaly at epoch: 27.7776°
orbit number at epoch: 23844

The dashed part of the orbit path shows where the satellite is in the earth's shadow,  

DLR